Regional Weather Roundup
Issued by NWS State College, PA

Home | Current Version | Previous Version | Text Only | Print | Product List | Glossary Off
Versions: 1 2 3 4 5 6 7 8 9 10 11 12 13 14 15 16 17 18 19 20 21 22 23 24 25 26 27 28 29 30 31 32 33 34 35 36 37 38 39 40 41 42 43 44 45 46 47 48 49 50

000
ASUS41 KCTP 200810
RWRCTP

REGIONAL WEATHER ROUNDUP
NATIONAL WEATHER SERVICE STATE COLLEGE PA
400 AM EDT SUN APR 20 2014

Note: "fair" indicates few or no clouds below 12,000 feet with no
significant weather and/or obstructions to visibility.

* = STATION THAT DOES NOT REPORT PRECIPITATION /E.G. RAIN...SNOW...ETC/
    THUNDER OR FOG.

PAZ002>004-007>009-013>016-020>023-029>032-200900-
WESTERN PENNSYLVANIA

CITY           SKY/WX    TMP DP  RH WIND       PRES   REMARKS
ERIE           CLEAR     43  27  53 CALM      30.32F
MEADVILLE      CLEAR     44  25  47 E6        30.31S
FRANKLIN*      CLEAR     41  25  52 E7        30.35R
NEW CASTLE     FAIR      40  29  65 CALM      30.31S
BEAVER COUNTY  NOT AVBL
BUTLER*        PTCLDY    45  27  49 NE8       30.33R
PITTSBURGH INT PTCLDY    46  27  47 E5        30.29R
PITTSBURGH     PTCLDY    49  25  39 E7        30.28S
INDIANA*       PTCLDY    45  27  49 E6        30.32S
LATROBE        CLEAR     48  27  43 NE3       30.30S
WASHINGTON CO* PTCLDY    34  28  80 CALM      30.30R
$$

PAZ004>006-010>012-017>019-024>028-033>037-041-042-045-046-049>053-200900-
CENTRAL PENNSYLVANIA

CITY           SKY/WX    TMP DP  RH WIND       PRES   REMARKS
BRADFORD       CLEAR     30  23  75 CALM      30.35R
DUBOIS         PTCLDY    40  25  55 E8        30.33S
CLEARFIELD     PTCLDY    37  26  64 N5        30.37R
JOHNSTOWN      MOCLDY    42  22  44 E6        30.30S
ALTOONA        MOCLDY    42  27  55 NE7       30.35R
STATE COLLEGE  PTCLDY    40  24  52 NE6       30.37R
WILLIAMSPORT   PTCLDY    37  28  70 CALM      30.40R
SELINSGROVE    PTCLDY    37  29  72 N5        30.39S
FT INDIANTOWN  NOT AVBL
CAPITAL CITY   MOCLDY    40  31  70 CALM      30.37R
HARRISBURG     MOCLDY    43  30  60 CALM      30.36R
YORK           MOCLDY    36  30  79 CALM      30.35S
$$

PAZ038>040-043-044-047-048-054-055-060>062-067>071-200900-
EASTERN PENNSYLVANIA

CITY           SKY/WX    TMP DP  RH WIND       PRES   REMARKS
SCRANTON       PTCLDY    37  26  64 VRB3      30.40R
MOUNT POCONO   PTCLDY    39  22  50 E9        30.37R
ALLENTOWN      PTCLDY    44  26  49 NE8       30.39S
QUAKERTOWN*    PTSUNNY   45  27  49 NE3       30.38S
READING        MOCLDY    47  25  42 NE5       30.37R
LANCASTER      MOCLDY    43  28  55 E7        30.35R
COATESVILLE    PTSUNNY   46  23  39 NE3       30.36S
POTTSTOWN      MOCLDY    45  25  45 NE3       30.39R
BLUE BELL      MOCLDY    48  28  46 NE3       30.36S
DOYLESTOWN     MOCLDY    45  26  47 NE5       30.37R
WILLOW GROVE   NOT AVBL
NORTH PHILA    MOCLDY    49  27  42 NE9       30.38S
PHILADELPHIA   CLOUDY    50  27  40 NE8       30.37R
$$



USA.gov is the U.S. government's official web portal to all federal, state and local government web resources and services.